{"data":{"norad_id":57767,"epoch":"2026-05-25T03:43:30.512064Z","epoch_age_seconds":72033,"freshness":"FRESH","line1":"1 57767U 23133L   26145.15521426  .00000209  00000+0  17420-3 0  9995","line2":"2 57767  80.9976  29.5500 0006729  86.1469 274.0457 13.85266812137813","mean_motion":13.85266812,"eccentricity":0.0006729,"inclination_deg":80.9976,"raan_deg":29.55,"arg_perigee_deg":86.1469,"mean_anomaly_deg":274.0457,"bstar":0.0001742,"rev_number":13781,"period_min":103.9510935746,"perigee_km":940.33731794123,"apogee_km":950.1931526695,"semimajor_km":7323.4022353054,"source":"CELESTRAK","updated_at":"2026-05-25T13:38:00.238599Z"}}